Orbital Elements at Epoch 2459200.5 (2020-Dec-17.0) TDB
Reference: JPL 14 (heliocentric ecliptic J2000)
Element | Value | Uncertainty (1-sigma) | Units |
e | .2444863924208608 | 5.9069e-08 | |
a | 2.332750384211837 | 1.0255e-08 | au |
q | 1.762424658357508 | 1.3476e-07 | au |
i | 2.875449312582798 | 6.5262e-06 | deg |
node | 156.5730308620886 | 0.00015381 | deg |
peri | 157.628009762279 | 0.00015509 | deg |
M | 170.1269263467518 | 2.2906e-05 | deg |
tp | 2458585.505281246657 (2019-Apr-12.00528125) | 8.029e-05 | TDB |
period | 1301.370121152668 3.56 | 8.5814e-06 2.349e-08 | d yr |
n | .2766315240749002 | 1.8241e-09 | deg/d |
Q | 2.903076110066167 | 1.2762e-08 | au |
|
| | Orbit Determination Parameters
Additional Information
|